| time (UTC) | temp F | wind direction | speed MPH | gust MPH | rain 1hr in | rain 24hr in | rain mn in | humidity % | barometer mb |
| 20260906053117 | 60 | 0.0 | 1.0 | 0.00 | 0.13 | 0.05 | 71 | 1012.6 | |
| 20260906052137 | 62 | 90 | 1.0 | 2.0 | 0.00 | 0.13 | 0.05 | 67 | 1012.7 |
| 20260906051117 | 64 | 113 | 2.0 | 3.0 | 0.00 | 0.14 | 0.05 | 65 | 1012.9 |
| 20260906050117 | 66 | 0.0 | 0.0 | 0.00 | 0.17 | 0.05 | 61 | 1012.8 | |
| 20260906045117 | 66 | 0.0 | 0.0 | 0.00 | 0.23 | 0.05 | 66 | 1012.8 | |
| 20260906044117 | 64 | 0.0 | 0.0 | 0.00 | 0.25 | 0.05 | 67 | 1012.8 | |
| 20260906043157 | 64 | 0.0 | 0.0 | 0.00 | 0.28 | 0.05 | 65 | 1012.7 | |
| 20260906042117 | 65 | 0.0 | 0.0 | 0.00 | 0.30 | 0.05 | 65 | 1012.6 | |
| 20260906041117 | 65 | 0.0 | 0.0 | 0.00 | 0.30 | 0.05 | 63 | 1012.6 | |
| 20260906040117 | 66 | 0.0 | 1.0 | 0.00 | 0.31 | 0.05 | 63 | 1012.6 | |
| 20260906035117 | 65 | 0.0 | 1.0 | 0.00 | 0.31 | 0.05 | 67 | 1012.7 | |
| 20260906034117 | 63 | 0.0 | 0.0 | 0.00 | 0.31 | 0.05 | 67 | 1012.6 | |
| 20260906033117 | 63 | 0.0 | 0.0 | 0.00 | 0.31 | 0.05 | 67 | 1012.7 | |
| 20260906032117 | 63 | 0 | 1.0 | 3.0 | 0.00 | 0.31 | 0.05 | 65 | 1012.7 |
| 20260906031117 | 62 | 315 | 1.0 | 2.0 | 0.00 | 0.31 | 0.05 | 66 | 1012.7 |
| 20260906030117 | 62 | 0.0 | 0.0 | 0.00 | 0.31 | 0.05 | 68 | 1012.9 | |
| 20260906025117 | 61 | 0.0 | 1.0 | 0.00 | 0.31 | 0.05 | 73 | 1012.9 | |
| 20260906024117 | 61 | 0.0 | 0.0 | 0.00 | 0.31 | 0.05 | 72 | 1013.0 | |
| 20260906023117 | 61 | 0.0 | 1.0 | 0.00 | 0.31 | 0.05 | 69 | 1013.1 | |
| 20260906022117 | 61 | 0.0 | 0.0 | 0.00 | 0.31 | 0.05 | 75 | 1013.2 | |
| 20260906021117 | 60 | 0.0 | 0.0 | 0.00 | 0.31 | 0.05 | 73 | 1013.4 | |
| 20260906020117 | 60 | 0.0 | 1.0 | 0.00 | 0.31 | 0.05 | 74 | 1013.3 | |
| 20260906015137 | 60 | 23 | 1.0 | 3.0 | 0.00 | 0.31 | 0.05 | 72 | 1013.5 |
| 20260906014137 | 59 | 68 | 1.0 | 2.0 | 0.00 | 0.31 | 0.05 | 69 | 1013.5 |
| 20260906013117 | 60 | 68 | 1.0 | 4.0 | 0.00 | 0.31 | 0.05 | 66 | 1013.7 |
| 20260906012117 | 60 | 0.0 | 1.0 | 0.00 | 0.31 | 0.05 | 66 | 1013.6 | |
| 20260906011117 | 60 | 0.0 | 0.0 | 0.00 | 0.31 | 0.05 | 71 | 1013.7 | |
| 20260906010117 | 60 | 0 | 1.0 | 2.0 | 0.00 | 0.31 | 0.05 | 69 | 1013.8 |
| 20260906005117 | 59 | 0.0 | 0.0 | 0.00 | 0.31 | 0.05 | 72 | 1013.7 | |
| 20260906004137 | 59 | 0.0 | 0.0 | 0.00 | 0.31 | 0.05 | 74 | 1013.7 | |
| 20260906003117 | 58 | 293 | 2.0 | 4.0 | 0.00 | 0.31 | 0.05 | 74 | 1013.6 |
| 20260906002117 | 59 | 0.0 | 2.0 | 0.00 | 0.32 | 0.05 | 78 | 1013.6 | |
| 20260906001117 | 58 | 0.0 | 0.0 | 0.00 | 0.32 | 0.05 | 77 | 1013.5 | |
| 20260906000117 | 59 | 0.0 | 0.0 | 0.00 | 0.32 | 0.05 | 78 | 1013.6 | |
| 20260905235117 | 58 | 0.0 | 0.0 | 0.00 | 0.32 | 0.05 | 82 | 1013.5 | |
| 20260905234117 | 57 | 203 | 2.0 | 5.0 | 0.00 | 0.32 | 0.05 | 85 | 1013.6 |
| 20260905233117 | 56 | 0.0 | 0.0 | 0.00 | 0.32 | 0.05 | 90 | 1013.4 | |
| 20260905232137 | 55 | 0.0 | 2.0 | 0.00 | 0.32 | 0.05 | 92 | 1013.4 | |
| 20260905231117 | 55 | 0.0 | 0.0 | 0.00 | 0.32 | 0.05 | 92 | 1013.4 | |
| 20260905230137 | 54 | 0.0 | 0.0 | 0.00 | 0.32 | 0.05 | 92 | 1013.4 | |
| 20260905225118 | 53 | 0.0 | 0.0 | 0.00 | 0.32 | 0.05 | 92 | 1013.3 | |
| 20260905224137 | 53 | 0.0 | 0.0 | 0.00 | 0.32 | 0.05 | 92 | 1013.3 | |
| 20260905223117 | 51 | 0.0 | 0.0 | 0.00 | 0.33 | 0.05 | 92 | 1013.1 | |
| 20260905222137 | 50 | 0.0 | 0.0 | 0.00 | 0.33 | 0.05 | 92 | 1013.0 | |
| 20260905221117 | 50 | 0.0 | 0.0 | 0.00 | 0.33 | 0.05 | 92 | 1013.0 | |
| 20260905220117 | 49 | 0.0 | 0.0 | 0.00 | 0.34 | 0.05 | 92 | 1012.8 | |
| 20260905215117 | 47 | 0.0 | 0.0 | 0.00 | 0.34 | 0.05 | 92 | 1012.7 | |
| 20260905214137 | 47 | 0.0 | 1.0 | 0.00 | 0.34 | 0.05 | 92 | 1012.3 | |
| 20260905213117 | 47 | 0.0 | 0.0 | 0.00 | 0.34 | 0.05 | 92 | 1012.2 | |
| 20260905212116 | 47 | 0.0 | 0.0 | 0.00 | 0.35 | 0.05 | 92 | 1012.2 | |
| 20260905211117 | 46 | 0.0 | 0.0 | 0.00 | 0.35 | 0.05 | 92 | 1011.9 | |
| 20260905210117 | 46 | 0.0 | 0.0 | 0.00 | 0.35 | 0.05 | 92 | 1011.7 | |
| 20260905205137 | 46 | 0.0 | 1.0 | 0.00 | 0.35 | 0.05 | 92 | 1011.5 | |
| 20260905204117 | 47 | 0.0 | 0.0 | 0.00 | 0.35 | 0.05 | 92 | 1011.2 | |
| 20260905203117 | 47 | 0.0 | 1.0 | 0.00 | 0.35 | 0.05 | 92 | 1011.0 | |
| 20260905202117 | 47 | 0.0 | 0.0 | 0.00 | 0.35 | 0.05 | 92 | 1010.8 | |
| 20260905201117 | 48 | 0.0 | 0.0 | 0.00 | 0.35 | 0.05 | 92 | 1010.6 | |
| 20260905200116 | 48 | 0.0 | 0.0 | 0.00 | 0.35 | 0.05 | 92 | 1010.5 | |
| 20260905195136 | 49 | 0.0 | 0.0 | 0.00 | 0.35 | 0.05 | 92 | 1010.4 | |
| 20260905194116 | 50 | 0.0 | 0.0 | 0.00 | 0.35 | 0.05 | 92 | 1010.1 | |
| 20260905193117 | 50 | 0.0 | 1.0 | 0.00 | 0.35 | 0.05 | 92 | 1010.2 | |
| 20260905192117 | 49 | 0.0 | 0.0 | 0.00 | 0.35 | 0.05 | 92 | 1009.9 | |
| 20260905191117 | 49 | 0.0 | 0.0 | 0.00 | 0.35 | 0.05 | 92 | 1009.9 | |
| 20260905190116 | 49 | 0.0 | 0.0 | 0.00 | 0.35 | 0.05 | 92 | 1009.8 | |
| 20260905185137 | 49 | 0.0 | 0.0 | 0.00 | 0.35 | 0.05 | 92 | 1009.5 | |
| 20260905184117 | 50 | 0.0 | 0.0 | 0.00 | 0.35 | 0.05 | 92 | 1009.2 | |
| 20260905183116 | 50 | 0.0 | 0.0 | 0.00 | 0.35 | 0.05 | 92 | 1009.0 | |
| 20260905182117 | 50 | 0.0 | 0.0 | 0.00 | 0.35 | 0.05 | 92 | 1009.0 | |
| 20260905181116 | 50 | 0.0 | 0.0 | 0.00 | 0.35 | 0.05 | 92 | 1008.5 | |
| 20260905180116 | 50 | 0.0 | 0.0 | 0.00 | 0.35 | 0.05 | 92 | 1008.3 | |
| 20260905175117 | 50 | 0.0 | 0.0 | 0.00 | 0.35 | 0.05 | 92 | 1008.2 | |
| 20260905174117 | 51 | 0.0 | 0.0 | 0.00 | 0.35 | 0.05 | 92 | 1007.9 | |
| 20260905173116 | 51 | 0.0 | 0.0 | 0.01 | 0.35 | 0.05 | 92 | 1007.7 | |
| 20260905172117 | 51 | 0.0 | 0.0 | 0.02 | 0.35 | 0.05 | 92 | 1007.3 | |
| 20260905171116 | 51 | 0.0 | 0.0 | 0.02 | 0.35 | 0.05 | 92 | 1007.2 | |
| 20260905170117 | 51 | 0.0 | 0.0 | 0.03 | 0.35 | 0.05 | 92 | 1007.1 | |
| 20260905165116 | 52 | 0.0 | 0.0 | 0.03 | 0.35 | 0.05 | 92 | 1007.0 | |
| 20260905164117 | 52 | 0.0 | 0.0 | 0.03 | 0.35 | 0.05 | 92 | 1006.9 | |
| 20260905163117 | 52 | 0.0 | 2.0 | 0.03 | 0.34 | 0.04 | 92 | 1006.5 | |
| 20260905162117 | 52 | 0.0 | 0.0 | 0.03 | 0.33 | 0.03 | 92 | 1006.3 | |
| 20260905161116 | 52 | 0.0 | 0.0 | 0.03 | 0.33 | 0.03 | 92 | 1006.1 | |
| 20260905160117 | 52 | 0.0 | 0.0 | 0.02 | 0.31 | 0.02 | 92 | 1006.0 | |
| 20260905155116 | 52 | 0.0 | 0.0 | 0.02 | 0.31 | 0.02 | 92 | 1005.7 | |
| 20260905154116 | 52 | 135 | 1.0 | 4.0 | 0.02 | 0.31 | 0.02 | 92 | 1005.6 |
| 20260905153116 | 52 | 0.0 | 1.0 | 0.01 | 0.31 | 0.01 | 92 | 1005.1 | |
| 20260905152117 | 52 | 0.0 | 1.0 | 0.00 | 0.30 | 0.00 | 92 | 1004.8 | |
| 20260905151137 | 52 | 135 | 1.0 | 3.0 | 0.00 | 0.30 | 0.00 | 92 | 1004.4 |
| 20260905150116 | 52 | 0.0 | 1.0 | 0.00 | 0.30 | 0.00 | 92 | 1004.1 | |
| 20260905145116 | 52 | 0.0 | 1.0 | 0.00 | 0.30 | 0.00 | 92 | 1003.7 | |
| 20260905144117 | 52 | 135 | 1.0 | 3.0 | 0.00 | 0.30 | 0.00 | 92 | 1003.3 |
| 20260905143117 | 52 | 0.0 | 1.0 | 0.00 | 0.30 | 0.00 | 92 | 1003.2 | |
| 20260905142136 | 52 | 0.0 | 2.0 | 0.00 | 0.30 | 0.00 | 92 | 1002.9 | |
| 20260905141117 | 52 | 113 | 1.0 | 4.0 | 0.02 | 0.30 | 0.00 | 92 | 1002.7 |
| 20260905140116 | 53 | 0.0 | 2.0 | 0.02 | 0.30 | 0.00 | 92 | 1002.5 | |
| 20260905135118 | 53 | 0.0 | 2.0 | 0.02 | 0.30 | 0.30 | 92 | 1002.2 | |
| 20260905134118 | 53 | 0.0 | 1.0 | 0.02 | 0.30 | 0.30 | 92 | 1002.0 | |
| 20260905133118 | 53 | 135 | 2.0 | 5.0 | 0.02 | 0.30 | 0.30 | 92 | 1001.6 |
| 20260905132118 | 53 | 0.0 | 0.0 | 0.02 | 0.30 | 0.30 | 92 | 1001.2 | |
| 20260905131118 | 52 | 0.0 | 0.0 | 0.00 | 0.28 | 0.28 | 92 | 1001.0 | |
| 20260905130138 | 52 | 0.0 | 0.0 | 0.00 | 0.28 | 0.28 | 92 | 1000.7 | |
| 20260905125138 | 52 | 0.0 | 0.0 | 0.00 | 0.28 | 0.28 | 92 | 1000.4 | |
| 20260905124118 | 52 | 0.0 | 3.0 | 0.00 | 0.28 | 0.28 | 92 | 1000.1 | |
| 20260905123138 | 52 | 0.0 | 3.0 | 0.00 | 0.28 | 0.28 | 92 | 999.9 | |
| 20260905122138 | 52 | 0.0 | 0.0 | 0.01 | 0.28 | 0.28 | 92 | 999.8 | |
| 20260905121118 | 52 | 0.0 | 3.0 | 0.01 | 0.28 | 0.28 | 92 | 999.4 | |
| 20260905120118 | 52 | 0.0 | 0.0 | 0.01 | 0.28 | 0.28 | 92 | 999.3 | |
| 20260905115119 | 53 | 0.0 | 2.0 | 0.01 | 0.28 | 0.28 | 92 | 998.9 | |
| 20260905114138 | 52 | 135 | 1.0 | 3.0 | 0.01 | 0.28 | 0.28 | 92 | 998.6 |
| 20260905113118 | 52 | 113 | 1.0 | 4.0 | 0.02 | 0.28 | 0.28 | 92 | 998.3 |
| 20260905112118 | 51 | 0.0 | 1.0 | 0.01 | 0.28 | 0.28 | 92 | 997.8 | |
| 20260905111159 | 51 | 158 | 1.0 | 4.0 | 0.01 | 0.28 | 0.28 | 92 | 997.6 |
| 20260905110118 | 51 | 225 | 3.0 | 8.0 | 0.01 | 0.28 | 0.28 | 92 | 997.3 |
| 20260905105138 | 51 | 0.0 | 1.0 | 0.01 | 0.28 | 0.28 | 92 | 996.9 | |
| 20260905104118 | 51 | 158 | 2.0 | 4.0 | 0.01 | 0.28 | 0.28 | 92 | 996.6 |
| 20260905103118 | 51 | 158 | 3.0 | 7.0 | 0.00 | 0.27 | 0.27 | 92 | 996.4 |
| 20260905102117 | 50 | 0.0 | 1.0 | 0.00 | 0.27 | 0.27 | 92 | 996.2 | |
| 20260905101118 | 50 | 0.0 | 3.0 | 0.00 | 0.27 | 0.27 | 92 | 996.0 | |
| 20260905100138 | 50 | 203 | 2.0 | 4.0 | 0.01 | 0.27 | 0.27 | 92 | 995.8 |
| 20260905095118 | 50 | 113 | 2.0 | 3.0 | 0.02 | 0.27 | 0.27 | 92 | 995.8 |
| 20260905094117 | 50 | 0.0 | 1.0 | 0.02 | 0.27 | 0.27 | 92 | 995.5 | |
| 20260905093118 | 50 | 0.0 | 1.0 | 0.02 | 0.27 | 0.27 | 92 | 995.5 | |
| 20260905092118 | 50 | 0.0 | 1.0 | 0.02 | 0.27 | 0.27 | 92 | 995.4 | |
| 20260905091118 | 50 | 113 | 1.0 | 3.0 | 0.02 | 0.27 | 0.27 | 92 | 995.3 |
| 20260905090118 | 50 | 0.0 | 1.0 | 0.01 | 0.26 | 0.26 | 92 | 995.1 | |
| 20260905085117 | 50 | 0.0 | 0.0 | 0.00 | 0.25 | 0.25 | 92 | 994.9 | |
| 20260905084138 | 50 | 0.0 | 0.0 | 0.00 | 0.25 | 0.25 | 92 | 994.7 | |
| 20260905083117 | 50 | 0.0 | 0.0 | 0.00 | 0.25 | 0.25 | 92 | 994.5 | |
| 20260905082118 | 50 | 0.0 | 0.0 | 0.00 | 0.25 | 0.25 | 92 | 994.1 | |
| 20260905081118 | 50 | 0.0 | 0.0 | 0.00 | 0.25 | 0.25 | 92 | 993.9 | |
| 20260905080118 | 50 | 0.0 | 1.0 | 0.00 | 0.25 | 0.25 | 92 | 993.7 | |
| 20260905075118 | 50 | 0.0 | 1.0 | 0.00 | 0.25 | 0.25 | 92 | 993.6 | |
| 20260905074117 | 50 | 0.0 | 1.0 | 0.00 | 0.25 | 0.25 | 92 | 993.4 | |
| 20260905073118 | 50 | 0.0 | 0.0 | 0.00 | 0.25 | 0.25 | 92 | 993.3 | |
| 20260905072117 | 51 | 0.0 | 1.0 | 0.00 | 0.25 | 0.25 | 92 | 993.2 | |
| 20260905071118 | 51 | 0.0 | 1.0 | 0.00 | 0.25 | 0.25 | 92 | 993.1 | |
| 20260905070118 | 51 | 0.0 | 0.0 | 0.00 | 0.25 | 0.25 | 92 | 993.1 | |
| 20260905065117 | 51 | 45 | 3.0 | 4.0 | 0.00 | 0.25 | 0.25 | 92 | 993.1 |
| 20260905064118 | 51 | 0.0 | 0.0 | 0.01 | 0.25 | 0.25 | 92 | 993.2 | |
| 20260905063117 | 52 | 0.0 | 0.0 | 0.03 | 0.25 | 0.25 | 92 | 993.3 | |
| 20260905062117 | 52 | 0.0 | 2.0 | 0.04 | 0.25 | 0.25 | 92 | 993.1 | |
| 20260905061117 | 53 | 0.0 | 1.0 | 0.05 | 0.25 | 0.25 | 92 | 993.0 | |
| 20260905060118 | 53 | 0.0 | 0.0 | 0.08 | 0.25 | 0.25 | 92 | 993.0 | |
| 20260905055117 | 52 | 0.0 | 1.0 | 0.13 | 0.25 | 0.25 | 92 | 993.0 | |
| 20260905054137 | 52 | 225 | 2.0 | 3.0 | 0.15 | 0.24 | 0.24 | 92 | 993.2 |